Regional Weather Roundup
Issued by NWS Sioux Falls, SD

Home | Current Version | Previous Version | Graphics & Text | Print | Product List | Glossary Off
Versions: 1 2 3 4 5 6 7 8 9 10 11 12 13 14 15 16 17 18 19 20 21 22 23 24 25 26 27 28 29 30 31 32 33 34 35 36 37 38 39 40 41 42 43 44 45 46 47 48 49 50

000
ASUS43 KFSD 222110
RWRFSD

WEATHER ROUNDUP FOR SE SOUTH DAKOTA/SW MINNESOTA/NW IOWA
NATIONAL WEATHER SERVICE SIOUX FALLS SD
300 PM CST MON JAN 22 2018

NOTE: "FAIR" INDICATES FEW OR NO CLOUDS BELOW 12,000 FEET WITH NO
SIGNIFICANT WEATHER AND OR OBSTRUCTIONS TO VISIBILITY.


SDZ038>040-050-052>070-222200-
SOUTHEAST SOUTH DAKOTA

CITY           SKY/WX    TMP DP  RH WIND       PRES   REMARKS
BROOKINGS      CLOUDY    26  23  88 N22G30    29.79S WCI  12
CHAMBERLAIN    CLOUDY    28  26  93 NW17      29.91R WCI  15
HURON          CLOUDY    24  22  91 N22G29    29.90S WCI   9
MADISON        CLOUDY    25  25 100 N26G33    29.79R WCI   9
MITCHELL       CLOUDY    25  23  92 N26G37    29.87S WCI   9
SIOUX FALLS    LGT SNOW  27  25  92 N28G35    29.74R BLWGSNOWWCI  11
WINNER         MIX PCPN  26  23  88 N17       29.91S FOG     WCI  13
YANKTON        LGT SNOW  27  25  93 MISG      29.76R VSB 1
$$

MNZ071-072-080-081-089-090-097-098-222200-
SOUTHWEST MINNESOTA

CITY           SKY/WX    TMP DP  RH WIND       PRES   REMARKS
FAIRMONT       LGT SNOW  29  28  96 N30G37    29.57R VSB 3/4 WCI  13
JACKSON        CLOUDY    28  27  93 VRB29G41  29.60R VSB 1   WCI  13
LUVERNE          N/A     28  25  86 N22G32    29.70R WCI  15
MARSHALL       CLOUDY    28  25  88 N25       29.77S WCI  13
MONTEVIDEO     CLOUDY    30  25  80 NE16G26   29.82R WCI  19
PIPESTONE      CLOUDY    27  25  93 N18G32    29.72S WCI  13
REDWOOD FALLS  SNOW      28  26  92 N18G30    29.74R VSB 1/2 WCI  15
TRACY          LGT SNOW  29  27  92 N24G30    29.73S VSB 1   WCI  15
WINDOM         CLOUDY    28  16  59 N37G43    29.63R WCI  11
WORTHINGTON    HVY SNOW  27  26  96 N36G45    29.62R VSB 1/4 WCI  10
$$

IAZ001>003-012>014-020>022-031-032-NEZ013-014-SDZ071-222200-
NORTHWEST IOWA

CITY           SKY/WX    TMP DP  RH WIND       PRES   REMARKS
CHEROKEE       LGT SNOW  30  29  98 N22G35    29.57R VSB 1   WCI  17
DENISON        LGT RAIN  32  30  93 N22G41    29.51R WCI  19
ESTHERVILLE    FOG       28  28 100 N32G43    29.56R VSB 1/2 WCI  12
LE MARS        MIX PCPN  28  28 100 N26G37    29.63R VSB 1/4 WCI  13
ORANGE CITY    CLOUDY    28  28 100 N29G39    29.61R WCI  13
SHELDON        HVY SNOW  28  28 100 N35G40    29.60R VSB<1/4 WCI  12
SIOUX CITY     SNOW      29  28  96 N30G38    29.64R VSB 1/4 WCI  13
SPENCER        FOG       30  27  88 N28G39    29.58R VSB 3/4 WCI  15
STORM LAKE     SNOW      28  28 100 N31G41    29.51R VSB 1/2 WCI  12
$$

ABBREVIATIONS USED IN REMARKS
   TC - TEMPERATURE IN CELSIUS
  WCI - WIND CHILL INDEX
   HX - HEAT INDEX
  VSB - VISIBILITY





USA.gov is the U.S. government's official web portal to all federal, state and local government web resources and services.